Starlink 32898

operational
NORAD ID: 62998 Int'l Des: 2025-031 Owner: SPXS Country: US Constellation: starlink
LEOCIRCULAR

About Starlink 32898

Description loading...

Live Position

Loading 3D Globe...

Upcoming Passes

Altitude History

Altitude vs Time

uPlot chart will show altitude changes over time

Two-Line Element Set

1 62998U 25031T 25303.64323079 .00033869 00000-0 12339-2 0 9991
2 62998 43.0027 158.0001 0000749 291.2987 68.7784 15.27600907 41209
Epoch: Oct 30, 2025 • Age: 22 hours

Current Status

Altitude 482.5 km
Velocity 7.63 km/s
Sub-Earth Point 22.66°N, 64.21°W
Launch Date Feb 11, 2025
Age 0.7 years
Type internet

Technical Details

Classification Payload
Mass 730.00 kg
Dry Mass 700.00 kg
Total Mass 730.00 kg
Length 0.30 m
Diameter 4.10 m
Span 29.00 m
Shape Box + pan
Manufacturer SPXS
Bus Type Starlink V2M
Phase Status In Orbit
Owner/State SPXS/US

Large Constellations

Loading constellations...